Simultaneous Nadir Overpasses (SNOs) Predictions

Prediction of SNOs near US between AQUA and NPP Satellite Orbit:

Table of predicted SNOs near US for the next 10.0 days since TLE Epoch: 11/13/2021
Index Date (AQUA) Time (AQUA) AQUA Lat,Lon Date (NPP) Time (NPP) NPP Lat,Lon Distance(km) Time Diff (sec)
1 11/14/2021 07:19:01 49.91, -75.98 11/14/2021 07:21:49 50.36, -78.38 178.04 168
2 11/14/2021 08:57:54 49.92,-100.70 11/14/2021 09:03:16 50.53,-103.67 222.44 322
3 11/16/2021 18:17:11 49.95, -80.19 11/16/2021 18:12:08 49.62, -81.97 132.71 303
4 11/16/2021 19:56:05 50.00,-104.94 11/16/2021 19:53:37 49.56,-107.32 177.92 148
5 11/19/2021 07:45:54 20.02, -89.52 11/19/2021 07:37:34 17.88, -90.12 246.09 500
6 11/19/2021 09:22:52 26.95,-112.57 11/19/2021 09:16:27 27.08,-113.18 61.99 385
7 11/22/2021 06:30:36 46.33, -65.04 11/22/2021 06:32:16 46.77, -67.25 176.21 100
8 11/22/2021 08:08:29 49.89, -88.34 11/22/2021 08:12:42 50.45, -91.04 202.43 253
9 11/22/2021 09:47:22 49.90,-113.06 11/22/2021 09:54:10 50.57,-116.37 246.78 408
